| time (UTC) | temp C | wind direction | speed KPH | gust KPH | rain 1hr cm | rain 24hr cm | rain mn cm | humidity % | barometer mb |
| 20260506112407 | 7 | 250 | 0.0 | 3.2 | 0.00 | 0.46 | 0.46 | 99 | 1008.2 |
| 20260506111904 | 7 | 124 | 0.0 | 3.2 | 0.00 | 0.46 | 0.46 | 99 | 1007.9 |
| 20260506111402 | 7 | 98 | 0.0 | 3.2 | 0.00 | 0.46 | 0.46 | 99 | 1008.0 |
| 20260506110859 | 7 | 46 | 0.0 | 3.2 | 0.00 | 0.46 | 0.46 | 99 | 1007.8 |
| 20260506110356 | 7 | 79 | 0.0 | 3.2 | 0.00 | 0.46 | 0.46 | 99 | 1007.9 |
| 20260506105853 | 7 | 120 | 0.0 | 3.2 | 0.00 | 0.46 | 0.46 | 99 | 1007.8 |
| 20260506105349 | 7 | 202 | 0.0 | 3.2 | 0.00 | 0.46 | 0.46 | 99 | 1007.8 |
| 20260506104847 | 7 | 339 | 0.0 | 3.2 | 0.00 | 0.46 | 0.46 | 99 | 1007.7 |
| 20260506104344 | 7 | 28 | 0.0 | 3.2 | 0.00 | 0.46 | 0.46 | 99 | 1007.2 |
| 20260506103842 | 7 | 108 | 1.6 | 4.8 | 0.00 | 0.46 | 0.46 | 99 | 1007.3 |
| 20260506103339 | 7 | 113 | 0.0 | 3.2 | 0.00 | 0.46 | 0.46 | 99 | 1007.6 |
| 20260506102836 | 7 | 25 | 0.0 | 3.2 | 0.00 | 0.46 | 0.46 | 99 | 1007.2 |
| 20260506102334 | 7 | 248 | 0.0 | 3.2 | 0.00 | 0.46 | 0.46 | 99 | 1007.2 |
| 20260506101831 | 7 | 19 | 0.0 | 8.0 | 0.00 | 0.46 | 0.46 | 99 | 1007.4 |
| 20260506101327 | 7 | 255 | 3.2 | 4.8 | 0.00 | 0.46 | 0.46 | 99 | 1007.7 |
| 20260506100825 | 7 | 29 | 0.0 | 3.2 | 0.00 | 0.46 | 0.46 | 99 | 1007.9 |
| 20260506100323 | 7 | 22 | 0.0 | 4.8 | 0.00 | 0.46 | 0.46 | 99 | 1007.9 |
| 20260506095822 | 7 | 357 | 0.0 | 4.8 | 0.00 | 0.46 | 0.46 | 99 | 1007.6 |
| 20260506095318 | 7 | 306 | 0.0 | 3.2 | 0.00 | 0.46 | 0.46 | 99 | 1007.3 |
| 20260506094815 | 7 | 8 | 0.0 | 3.2 | 0.00 | 0.46 | 0.46 | 99 | 1007.1 |
| 20260506094314 | 7 | 53 | 0.0 | 3.2 | 0.05 | 0.46 | 0.46 | 99 | 1007.1 |
| 20260506093811 | 7 | 349 | 1.6 | 3.2 | 0.05 | 0.46 | 0.46 | 99 | 1006.9 |
| 20260506093308 | 7 | 59 | 0.0 | 4.8 | 0.05 | 0.43 | 0.43 | 99 | 1007.3 |
| 20260506092806 | 7 | 39 | 0.0 | 3.2 | 0.05 | 0.43 | 0.43 | 99 | 1007.2 |
| 20260506092306 | 7 | 44 | 0.0 | 3.2 | 0.00 | 0.43 | 0.43 | 99 | 1007.3 |
| 20260506091801 | 7 | 89 | 0.0 | 3.2 | 0.00 | 0.43 | 0.43 | 99 | 1007.6 |
| 20260506091258 | 7 | 209 | 0.0 | 4.8 | 0.00 | 0.43 | 0.43 | 99 | 1007.6 |
| 20260506090756 | 7 | 55 | 0.0 | 3.2 | 0.00 | 0.43 | 0.43 | 99 | 1007.7 |
| 20260506090253 | 7 | 193 | 0.0 | 3.2 | 0.00 | 0.43 | 0.43 | 99 | 1007.9 |
| 20260506085749 | 7 | 209 | 0.0 | 4.8 | 0.00 | 0.43 | 0.43 | 99 | 1007.6 |
| 20260506085246 | 7 | 254 | 0.0 | 6.4 | 0.05 | 0.43 | 0.43 | 99 | 1007.6 |
| 20260506084742 | 7 | 201 | 0.0 | 6.4 | 0.05 | 0.43 | 0.43 | 99 | 1007.8 |
| 20260506084239 | 7 | 229 | 1.6 | 3.2 | 0.00 | 0.43 | 0.43 | 99 | 1007.5 |
| 20260506083736 | 7 | 247 | 0.0 | 4.8 | 0.00 | 0.43 | 0.43 | 99 | 1007.5 |
| 20260506083234 | 7 | 145 | 0.0 | 3.2 | 0.00 | 0.43 | 0.43 | 99 | 1007.3 |
| 20260506082731 | 7 | 205 | 0.0 | 4.8 | 0.05 | 0.43 | 0.43 | 99 | 1007.4 |
| 20260506082226 | 7 | 212 | 4.8 | 11.3 | 0.13 | 0.43 | 0.43 | 99 | 1007.4 |
| 20260506081724 | 7 | 343 | 3.2 | 6.4 | 0.13 | 0.41 | 0.41 | 99 | 1007.3 |
| 20260506081221 | 7 | 33 | 0.0 | 4.8 | 0.18 | 0.41 | 0.41 | 99 | 1007.2 |
| 20260506080719 | 7 | 228 | 4.8 | 4.8 | 0.18 | 0.38 | 0.38 | 99 | 1007.4 |
| 20260506080215 | 7 | 64 | 0.0 | 3.2 | 0.18 | 0.38 | 0.38 | 99 | 1007.7 |
| 20260506073154 | 7 | 249 | 0.0 | 6.4 | 0.13 | 0.28 | 0.28 | 99 | 1007.6 |
| 20260506072650 | 7 | 198 | 0.0 | 4.8 | 0.13 | 0.28 | 0.28 | 99 | 1007.6 |
| 20260506072148 | 7 | 89 | 0.0 | 6.4 | 0.13 | 0.25 | 0.25 | 99 | 1007.5 |
| 20260506071645 | 7 | 106 | 1.6 | 11.3 | 0.18 | 0.25 | 0.25 | 99 | 1007.4 |
| 20260506071143 | 7 | 244 | 1.6 | 4.8 | 0.18 | 0.23 | 0.23 | 99 | 1007.5 |
| 20260506070639 | 7 | 337 | 0.0 | 4.8 | 0.13 | 0.23 | 0.23 | 99 | 1007.5 |
| 20260506070137 | 7 | 172 | 3.2 | 4.8 | 0.13 | 0.20 | 0.20 | 99 | 1007.6 |
| 20260506062114 | 7 | 133 | 0.0 | 3.2 | 0.05 | 0.15 | 0.15 | 99 | 1007.0 |
| 20260506061609 | 7 | 180 | 0.0 | 3.2 | 0.13 | 0.15 | 0.15 | 99 | 1007.5 |
| 20260506061108 | 7 | 224 | 0.0 | 1.6 | 0.05 | 0.15 | 0.15 | 99 | 1007.7 |
| 20260506060606 | 7 | 116 | 0.0 | 3.2 | 0.00 | 0.13 | 0.13 | 99 | 1007.8 |
| 20260506051034 | 7 | 80 | 0.0 | 3.2 | 0.13 | 0.08 | 0.08 | 99 | 1007.6 |
| 20260506050532 | 7 | 148 | 0.0 | 3.2 | 0.05 | 0.08 | 0.08 | 99 | 1007.7 |
| 20260506045023 | 7 | 27 | 0.0 | 3.2 | 0.13 | 0.05 | 0.05 | 99 | 1007.7 |
| 20260506044521 | 7 | 30 | 3.2 | 4.8 | 0.05 | 0.05 | 0.05 | 99 | 1007.6 |
| 20260506044017 | 8 | 78 | 1.6 | 3.2 | 0.05 | 0.03 | 0.03 | 99 | 1007.9 |
| 20260506043514 | 8 | 89 | 0.0 | 4.8 | 0.05 | 0.03 | 0.03 | 99 | 1007.7 |
| 20260506043013 | 8 | 58 | 1.6 | 4.8 | 0.05 | 0.03 | 0.03 | 99 | 1007.9 |
| 20260506042512 | 7 | 32 | 1.6 | 3.2 | 0.05 | 0.03 | 0.03 | 99 | 1007.7 |
| 20260506042009 | 7 | 100 | 0.0 | 3.2 | 0.00 | 0.00 | 0.00 | 99 | 1007.9 |
| 20260506041508 | 7 | 50 | 0.0 | 1.6 | 0.05 | 0.00 | 0.00 | 99 | 1008.0 |
| 20260506041004 | 7 | 186 | 0.0 | 1.6 | 0.05 | 0.00 | 0.00 | 99 | 1008.0 |
| 20260506040502 | 7 | 99 | 0.0 | 3.2 | 0.05 | 0.00 | 0.00 | 98 | 1008.1 |
| 20260506035957 | 7 | 304 | 0.0 | 6.4 | 0.13 | 3.05 | 3.05 | 98 | 1008.1 |
| 20260506035455 | 8 | 354 | 3.2 | 4.8 | 0.13 | 3.02 | 3.02 | 98 | 1008.2 |
| 20260506034951 | 8 | 50 | 0.0 | 3.2 | 0.13 | 3.02 | 3.02 | 99 | 1008.4 |
| 20260506034449 | 8 | 15 | 0.0 | 3.2 | 0.18 | 3.02 | 3.02 | 99 | 1008.1 |
| 20260506033946 | 8 | 139 | 1.6 | 3.2 | 0.18 | 3.00 | 3.00 | 99 | 1008.5 |
| 20260506033443 | 8 | 144 | 0.0 | 3.2 | 0.13 | 2.97 | 2.97 | 99 | 1008.5 |
| 20260506032939 | 8 | 342 | 0.0 | 4.8 | 0.13 | 2.97 | 2.97 | 99 | 1008.5 |
| 20260506032437 | 8 | 353 | 0.0 | 4.8 | 0.18 | 2.97 | 2.97 | 99 | 1008.8 |
| 20260506031933 | 8 | 186 | 0.0 | 6.4 | 0.30 | 2.95 | 2.95 | 98 | 1008.8 |
| 20260506031431 | 8 | 234 | 1.6 | 4.8 | 0.23 | 2.92 | 2.92 | 98 | 1008.7 |
| 20260506030928 | 8 | 345 | 1.6 | 3.2 | 0.23 | 2.90 | 2.90 | 99 | 1008.3 |
| 20260506030426 | 8 | 269 | 0.0 | 3.2 | 0.23 | 2.87 | 2.87 | 99 | 1008.4 |
| 20260506025923 | 8 | 230 | 0.0 | 3.2 | 0.18 | 2.87 | 2.87 | 99 | 1008.3 |
| 20260506025420 | 8 | 22 | 1.6 | 3.2 | 0.30 | 2.84 | 2.84 | 99 | 1008.4 |
| 20260506024916 | 8 | 290 | 0.0 | 3.2 | 0.43 | 2.82 | 2.82 | 99 | 1008.5 |
| 20260506024414 | 9 | 72 | 0.0 | 3.2 | 0.30 | 2.79 | 2.79 | 99 | 1008.7 |
| 20260506023909 | 8 | 332 | 0.0 | 3.2 | 0.36 | 2.74 | 2.74 | 99 | 1008.7 |
| 20260506023407 | 9 | 19 | 0.0 | 3.2 | 0.43 | 2.72 | 2.72 | 99 | 1008.5 |
| 20260506022903 | 9 | 201 | 1.6 | 3.2 | 0.36 | 2.69 | 2.69 | 99 | 1008.5 |
| 20260506022401 | 9 | 2 | 0.0 | 4.8 | 0.53 | 2.67 | 2.67 | 99 | 1008.4 |
| 20260506021859 | 9 | 0 | 1.6 | 3.2 | 0.66 | 2.62 | 2.62 | 99 | 1008.2 |
| 20260506021355 | 9 | 0 | 0.0 | 3.2 | 0.61 | 2.57 | 2.57 | 98 | 1008.1 |
| 20260506020852 | 9 | 6 | 4.8 | 4.8 | 0.53 | 2.51 | 2.51 | 98 | 1007.9 |
| 20260506020350 | 9 | 22 | 0.0 | 3.2 | 0.43 | 2.46 | 2.46 | 98 | 1008.1 |
| 20260506015847 | 9 | 351 | 1.6 | 3.2 | 0.36 | 2.44 | 2.44 | 98 | 1008.1 |
| 20260506015345 | 9 | 10 | 1.6 | 3.2 | 0.23 | 2.39 | 2.39 | 98 | 1007.9 |
| 20260506014841 | 9 | 56 | 0.0 | 3.2 | 0.05 | 2.36 | 2.36 | 98 | 1007.9 |
| 20260506014338 | 9 | 23 | 1.6 | 3.2 | 0.05 | 2.36 | 2.36 | 98 | 1007.7 |
| 20260506013835 | 9 | 55 | 0.0 | 3.2 | 0.13 | 2.36 | 2.36 | 98 | 1007.6 |
| 20260506013332 | 9 | 37 | 0.0 | 1.6 | 0.23 | 2.36 | 2.36 | 98 | 1007.7 |
| 20260506012828 | 9 | 60 | 1.6 | 3.2 | 0.30 | 2.34 | 2.34 | 98 | 1007.6 |
| 20260506012326 | 9 | 65 | 3.2 | 4.8 | 0.18 | 2.31 | 2.31 | 98 | 1007.5 |
| 20260506011823 | 9 | 84 | 1.6 | 3.2 | 0.13 | 2.29 | 2.29 | 98 | 1007.6 |
| 20260506011319 | 9 | 317 | 0.0 | 3.2 | 0.13 | 2.29 | 2.29 | 98 | 1007.6 |
| 20260506010817 | 9 | 65 | 3.2 | 4.8 | 0.13 | 2.26 | 2.26 | 98 | 1007.6 |
| 20260506010315 | 9 | 37 | 0.0 | 3.2 | 0.05 | 2.26 | 2.26 | 98 | 1007.3 |
| 20260506005811 | 9 | 15 | 3.2 | 3.2 | 0.05 | 2.26 | 2.26 | 98 | 1007.4 |
| 20260506005308 | 9 | 41 | 0.0 | 4.8 | 0.05 | 2.24 | 2.24 | 98 | 1007.6 |
| 20260506004804 | 9 | 315 | 0.0 | 4.8 | 0.05 | 2.24 | 2.24 | 98 | 1007.6 |
| 20260506004302 | 9 | 65 | 3.2 | 6.4 | 0.05 | 2.24 | 2.24 | 98 | 1007.7 |
| 20260506003758 | 9 | 33 | 0.0 | 3.2 | 0.23 | 2.24 | 2.24 | 98 | 1007.5 |
| 20260506003254 | 9 | 62 | 0.0 | 4.8 | 0.23 | 2.21 | 2.21 | 98 | 1007.7 |
| 20260506002751 | 9 | 340 | 0.0 | 6.4 | 0.13 | 2.18 | 2.18 | 98 | 1007.7 |
| 20260506002247 | 9 | 348 | 1.6 | 6.4 | 0.18 | 2.18 | 2.18 | 98 | 1007.6 |
| 20260506001743 | 9 | 37 | 0.0 | 4.8 | 0.18 | 2.16 | 2.16 | 98 | 1007.6 |
| 20260506001241 | 9 | 331 | 4.8 | 8.0 | 0.18 | 2.16 | 2.16 | 98 | 1007.3 |
| 20260506000737 | 9 | 27 | 3.2 | 3.2 | 0.23 | 2.13 | 2.13 | 98 | 1007.2 |
| 20260506000235 | 9 | 353 | 3.2 | 8.0 | 0.30 | 2.11 | 2.11 | 98 | 1007.2 |
| 20260505235732 | 9 | 29 | 0.0 | 4.8 | 0.36 | 2.11 | 2.11 | 98 | 1007.1 |
| 20260505235229 | 9 | 61 | 4.8 | 6.4 | 0.30 | 2.06 | 2.06 | 98 | 1007.0 |
| 20260505234726 | 9 | 42 | 0.0 | 4.8 | 0.23 | 2.03 | 2.03 | 98 | 1006.9 |
| 20260505234223 | 9 | 91 | 6.4 | 9.7 | 0.18 | 2.03 | 2.03 | 98 | 1007.0 |
| 20260505233720 | 10 | 253 | 0.0 | 8.0 | 0.05 | 2.01 | 2.01 | 98 | 1007.0 |
| 20260505233218 | 10 | 42 | 0.0 | 6.4 | 0.05 | 1.98 | 1.98 | 98 | 1007.0 |
| 20260505232715 | 10 | 330 | 1.6 | 4.8 | 0.05 | 1.98 | 1.98 | 98 | 1006.9 |
| 20260505232212 | 10 | 48 | 4.8 | 6.4 | 0.05 | 1.98 | 1.98 | 98 | 1007.2 |
| 20260505231709 | 10 | 72 | 4.8 | 8.0 | 0.05 | 1.98 | 1.98 | 98 | 1007.3 |
| 20260505231208 | 10 | 62 | 0.0 | 8.0 | 0.05 | 1.98 | 1.98 | 98 | 1007.1 |
| 20260505230706 | 10 | 42 | 3.2 | 4.8 | 0.13 | 1.98 | 1.98 | 97 | 1007.0 |
| 20260505230202 | 10 | 7 | 0.0 | 4.8 | 0.53 | 1.96 | 1.96 | 97 | 1007.5 |
| 20260505225658 | 10 | 33 | 3.2 | 3.2 | 0.79 | 1.93 | 1.93 | 97 | 1007.8 |
| 20260505225155 | 10 | 345 | 0.0 | 6.4 | 0.71 | 1.85 | 1.85 | 97 | 1007.9 |
| 20260505224651 | 10 | 359 | 3.2 | 6.4 | 0.71 | 1.80 | 1.80 | 97 | 1007.8 |
| 20260505224149 | 10 | 16 | 3.2 | 4.8 | 0.36 | 1.75 | 1.75 | 97 | 1007.7 |
| 20260505223646 | 10 | 26 | 3.2 | 4.8 | 0.23 | 1.70 | 1.70 | 97 | 1007.7 |
| 20260505223142 | 10 | 349 | 3.2 | 4.8 | 0.48 | 1.68 | 1.68 | 97 | 1007.7 |
| 20260505222638 | 10 | 195 | 0.0 | 6.4 | 0.43 | 1.65 | 1.65 | 97 | 1007.9 |
| 20260505222135 | 10 | 353 | 3.2 | 9.7 | 0.23 | 1.60 | 1.60 | 97 | 1007.3 |
| 20260505221632 | 10 | 50 | 1.6 | 11.3 | 0.30 | 1.57 | 1.57 | 97 | 1007.1 |
| 20260505221128 | 10 | 358 | 1.6 | 8.0 | 0.30 | 1.55 | 1.55 | 97 | 1007.3 |
| 20260505220626 | 10 | 335 | 0.0 | 4.8 | 0.48 | 1.52 | 1.52 | 97 | 1007.4 |
| 20260505220123 | 10 | 349 | 4.8 | 11.3 | 0.71 | 1.50 | 1.50 | 97 | 1007.4 |
| 20260505215621 | 10 | 219 | 3.2 | 8.0 | 0.71 | 1.45 | 1.45 | 97 | 1007.3 |
| 20260505215119 | 10 | 92 | 1.6 | 8.0 | 0.43 | 1.37 | 1.37 | 97 | 1007.6 |
| 20260505214617 | 10 | 340 | 3.2 | 4.8 | 0.23 | 1.32 | 1.32 | 97 | 1007.2 |
| 20260505214113 | 10 | 349 | 0.0 | 4.8 | 0.30 | 1.32 | 1.32 | 97 | 1006.8 |
| 20260505213611 | 10 | 205 | 1.6 | 4.8 | 0.53 | 1.30 | 1.30 | 97 | 1007.0 |
| 20260505213107 | 10 | 201 | 4.8 | 11.3 | 0.36 | 1.24 | 1.24 | 96 | 1007.0 |
| 20260505212603 | 11 | 352 | 3.2 | 9.7 | 0.18 | 1.19 | 1.19 | 97 | 1007.1 |
| 20260505212102 | 11 | 243 | 3.2 | 9.7 | 0.18 | 1.19 | 1.19 | 96 | 1006.7 |
| 20260505211558 | 11 | 312 | 3.2 | 6.4 | 0.36 | 1.17 | 1.17 | 97 | 1006.9 |
| 20260505211055 | 11 | 13 | 1.6 | 8.0 | 0.36 | 1.14 | 1.14 | 97 | 1006.7 |
| 20260505210551 | 11 | 219 | 1.6 | 8.0 | 0.48 | 1.12 | 1.12 | 96 | 1006.8 |
| 20260505210049 | 11 | 88 | 1.6 | 6.4 | 0.43 | 1.07 | 1.07 | 96 | 1006.9 |
| 20260505205546 | 11 | 326 | 3.2 | 8.0 | 0.43 | 1.04 | 1.04 | 96 | 1006.9 |
| 20260505205044 | 11 | 296 | 1.6 | 8.0 | 0.43 | 1.02 | 1.02 | 96 | 1006.8 |
| 20260505204541 | 11 | 36 | 3.2 | 9.7 | 0.30 | 0.97 | 0.97 | 96 | 1007.1 |
| 20260505204038 | 11 | 302 | 1.6 | 6.4 | 0.61 | 0.94 | 0.94 | 96 | 1007.1 |
| 20260505203535 | 12 | 330 | 4.8 | 8.0 | 0.61 | 0.91 | 0.91 | 96 | 1007.2 |
| 20260505203032 | 13 | 223 | 3.2 | 9.7 | 0.48 | 0.84 | 0.84 | 95 | 1007.0 |
| 20260505202528 | 13 | 247 | 1.6 | 9.7 | 0.53 | 0.81 | 0.81 | 96 | 1006.8 |
| 20260505202024 | 13 | 201 | 1.6 | 8.0 | 0.23 | 0.74 | 0.74 | 96 | 1006.6 |
| 20260505201521 | 13 | 203 | 1.6 | 6.4 | 0.23 | 0.71 | 0.71 | 96 | 1006.8 |
| 20260505201018 | 13 | 195 | 0.0 | 9.7 | 0.23 | 0.71 | 0.71 | 95 | 1006.8 |
| 20260505200516 | 13 | 240 | 0.0 | 8.0 | 0.13 | 0.69 | 0.69 | 95 | 1006.9 |
| 20260505200013 | 13 | 228 | 3.2 | 6.4 | 0.23 | 0.66 | 0.66 | 95 | 1006.9 |
| 20260505195509 | 14 | 205 | 1.6 | 6.4 | 0.23 | 0.66 | 0.66 | 95 | 1006.9 |
| 20260505195007 | 14 | 251 | 1.6 | 4.8 | 0.36 | 0.64 | 0.64 | 95 | 1006.9 |
| 20260505194504 | 13 | 17 | 0.0 | 3.2 | 0.43 | 0.61 | 0.61 | 94 | 1006.9 |
| 20260505194004 | 14 | 242 | 0.0 | 3.2 | 0.66 | 0.56 | 0.56 | 94 | 1007.0 |
| 20260505193502 | 14 | 207 | 1.6 | 4.8 | 0.79 | 0.53 | 0.53 | 94 | 1007.0 |
| 20260505192959 | 14 | 76 | 1.6 | 3.2 | 0.79 | 0.46 | 0.46 | 93 | 1006.8 |
| 20260505192457 | 14 | 211 | 0.0 | 3.2 | 0.97 | 0.41 | 0.41 | 93 | 1007.0 |
| 20260505191954 | 14 | 177 | 0.0 | 4.8 | 0.84 | 0.33 | 0.33 | 93 | 1007.1 |
| 20260505191453 | 14 | 205 | 1.6 | 4.8 | 0.66 | 0.25 | 0.25 | 92 | 1007.0 |
| 20260505190950 | 14 | 163 | 1.6 | 4.8 | 0.48 | 0.18 | 0.18 | 91 | 1006.8 |
| 20260505190444 | 14 | 226 | 1.6 | 6.4 | 0.23 | 0.15 | 0.15 | 91 | 1007.0 |
| 20260505185940 | 15 | 201 | 3.2 | 3.2 | 0.13 | 0.10 | 0.10 | 90 | 1006.9 |
| 20260505185438 | 15 | 235 | 0.0 | 3.2 | 0.23 | 0.10 | 0.10 | 89 | 1007.0 |
| 20260505184934 | 15 | 224 | 3.2 | 4.8 | 0.30 | 0.10 | 0.10 | 88 | 1006.9 |
| 20260505184431 | 15 | 215 | 3.2 | 8.0 | 0.30 | 0.05 | 0.05 | 86 | 1007.0 |
| 20260505183927 | 15 | 250 | 1.6 | 11.3 | 0.23 | 0.05 | 0.05 | 84 | 1007.2 |
| 20260505183424 | 15 | 214 | 8.0 | 16.1 | 0.05 | 0.00 | 0.00 | 80 | 1007.1 |
| 20260505182921 | 16 | 214 | 1.6 | 11.3 | 0.00 | 0.00 | 0.00 | 79 | 1006.9 |
| 20260505182418 | 16 | 221 | 3.2 | 14.5 | 0.00 | 0.00 | 0.00 | 78 | 1007.0 |
| 20260505181914 | 16 | 219 | 9.7 | 16.1 | 0.00 | 0.00 | 0.00 | 77 | 1006.7 |
| 20260505181412 | 16 | 219 | 6.4 | 14.5 | 0.00 | 0.00 | 0.00 | 76 | 1006.8 |
| 20260505180908 | 16 | 223 | 4.8 | 17.7 | 0.00 | 0.00 | 0.00 | 75 | 1006.8 |
| 20260505180405 | 16 | 194 | 4.8 | 20.9 | 0.00 | 0.00 | 0.00 | 75 | 1006.9 |
| 20260505175901 | 16 | 41 | 4.8 | 16.1 | 0.00 | 0.00 | 0.00 | 74 | 1006.7 |
| 20260505175358 | 17 | 228 | 8.0 | 17.7 | 0.00 | 0.00 | 0.00 | 73 | 1006.9 |
| 20260505174854 | 17 | 358 | 6.4 | 16.1 | 0.00 | 0.00 | 0.00 | 73 | 1006.7 |
| 20260505174352 | 17 | 33 | 3.2 | 9.7 | 0.00 | 0.00 | 0.00 | 72 | 1006.9 |
| 20260505173848 | 17 | 273 | 4.8 | 8.0 | 0.00 | 0.00 | 0.00 | 72 | 1006.6 |
| 20260505173345 | 17 | 249 | 4.8 | 14.5 | 0.00 | 0.00 | 0.00 | 70 | 1006.6 |
| 20260505172842 | 18 | 213 | 4.8 | 16.1 | 0.00 | 0.00 | 0.00 | 71 | 1006.6 |
| 20260505172339 | 17 | 237 | 3.2 | 14.5 | 0.00 | 0.00 | 0.00 | 70 | 1006.6 |
| 20260505171839 | 17 | 203 | 3.2 | 16.1 | 0.00 | 0.00 | 0.00 | 71 | 1006.5 |
| 20260505171336 | 17 | 207 | 4.8 | 14.5 | 0.00 | 0.00 | 0.00 | 71 | 1006.7 |
| 20260505170833 | 17 | 212 | 6.4 | 17.7 | 0.00 | 0.00 | 0.00 | 72 | 1006.5 |
| 20260505170330 | 17 | 213 | 6.4 | 20.9 | 0.00 | 0.00 | 0.00 | 71 | 1006.5 |
| 20260505165825 | 17 | 215 | 0.0 | 14.5 | 0.00 | 0.00 | 0.00 | 71 | 1006.6 |
| 20260505165321 | 17 | 229 | 8.0 | 17.7 | 0.00 | 0.00 | 0.00 | 71 | 1006.6 |
| 20260505164817 | 17 | 353 | 6.4 | 19.3 | 0.00 | 0.00 | 0.00 | 70 | 1006.5 |
| 20260505164314 | 17 | 232 | 4.8 | 6.4 | 0.00 | 0.00 | 0.00 | 69 | 1006.6 |
| 20260505163812 | 18 | 245 | 8.0 | 20.9 | 0.00 | 0.00 | 0.00 | 68 | 1006.4 |
| 20260505163310 | 18 | 214 | 8.0 | 14.5 | 0.00 | 0.00 | 0.00 | 67 | 1006.4 |
| 20260505162808 | 18 | 224 | 3.2 | 9.7 | 0.00 | 0.00 | 0.00 | 68 | 1006.3 |
| 20260505162306 | 18 | 212 | 4.8 | 8.0 | 0.00 | 0.00 | 0.00 | 67 | 1006.4 |
| 20260505161802 | 18 | 4 | 6.4 | 12.9 | 0.00 | 0.00 | 0.00 | 67 | 1006.3 |
| 20260505161259 | 18 | 169 | 4.8 | 11.3 | 0.00 | 0.00 | 0.00 | 67 | 1006.3 |
| 20260505160756 | 18 | 20 | 0.0 | 24.1 | 0.00 | 0.00 | 0.00 | 66 | 1006.5 |
| 20260505160254 | 18 | 214 | 4.8 | 12.9 | 0.00 | 0.00 | 0.00 | 66 | 1006.4 |
| 20260505153233 | 20 | 216 | 9.7 | 17.7 | 0.00 | 0.00 | 0.00 | 61 | 1005.9 |
| 20260505152730 | 20 | 235 | 6.4 | 11.3 | 0.00 | 0.00 | 0.00 | 62 | 1005.7 |
| 20260505152226 | 20 | 187 | 1.6 | 11.3 | 0.00 | 0.00 | 0.00 | 63 | 1005.6 |
| 20260505151720 | 20 | 223 | 4.8 | 11.3 | 0.00 | 0.00 | 0.00 | 62 | 1005.5 |
| 20260505151218 | 20 | 201 | 1.6 | 14.5 | 0.00 | 0.00 | 0.00 | 62 | 1005.2 |
| 20260505150715 | 20 | 209 | 4.8 | 11.3 | 0.00 | 0.00 | 0.00 | 61 | 1005.0 |
| 20260505150212 | 20 | 207 | 1.6 | 9.7 | 0.00 | 0.00 | 0.00 | 63 | 1005.0 |
| 20260505140645 | 18 | 267 | 9.7 | 17.7 | 0.00 | 0.00 | 0.00 | 65 | 1005.1 |
| 20260505140142 | 18 | 204 | 4.8 | 24.1 | 0.00 | 0.00 | 0.00 | 65 | 1005.1 |
| 20260505130106 | 17 | 191 | 1.6 | 4.8 | 0.00 | 0.00 | 0.00 | 72 | 1004.7 |
| 20260505124555 | 16 | 216 | 4.8 | 11.3 | 0.00 | 0.00 | 0.00 | 71 | 1005.0 |
| 20260505124051 | 16 | 225 | 1.6 | 9.7 | 0.00 | 0.00 | 0.00 | 72 | 1005.1 |
| 20260505123548 | 16 | 187 | 1.6 | 11.3 | 0.00 | 0.00 | 0.00 | 71 | 1004.8 |
| 20260505123044 | 16 | 183 | 3.2 | 12.9 | 0.00 | 0.00 | 0.00 | 71 | 1004.8 |
| 20260505122541 | 16 | 230 | 4.8 | 16.1 | 0.00 | 0.00 | 0.00 | 71 | 1004.8 |
| 20260505122038 | 16 | 200 | 8.0 | 12.9 | 0.00 | 0.00 | 0.00 | 70 | 1004.8 |
| 20260505121535 | 16 | 67 | 4.8 | 14.5 | 0.00 | 0.00 | 0.00 | 70 | 1004.7 |
| 20260505121032 | 16 | 17 | 1.6 | 6.4 | 0.00 | 0.00 | 0.00 | 71 | 1004.6 |
| 20260505120528 | 16 | 303 | 1.6 | 17.7 | 0.00 | 0.00 | 0.00 | 70 | 1004.3 |
| 20260505120023 | 16 | 248 | 3.2 | 9.7 | 0.00 | 0.00 | 0.00 | 71 | 1004.2 |
| 20260505115518 | 16 | 229 | 0.0 | 12.9 | 0.00 | 0.00 | 0.00 | 71 | 1003.9 |
| 20260505115016 | 16 | 242 | 0.0 | 8.0 | 0.00 | 0.00 | 0.00 | 71 | 1004.0 |
| 20260505114513 | 16 | 78 | 4.8 | 9.7 | 0.00 | 0.00 | 0.00 | 71 | 1003.6 |
| 20260505114009 | 16 | 224 | 3.2 | 8.0 | 0.00 | 0.00 | 0.00 | 72 | 1003.4 |
| 20260505113506 | 16 | 188 | 1.6 | 4.8 | 0.00 | 0.00 | 0.00 | 71 | 1002.9 |
| 20260505113001 | 16 | 212 | 4.8 | 8.0 | 0.00 | 0.00 | 0.00 | 71 | 1003.1 |
| 20260505112459 | 16 | 284 | 1.6 | 11.3 | 0.00 | 0.00 | 0.00 | 70 | 1003.1 |